Regional Weather Roundup
Issued by NWS

Home | Current Version | Previous Version | Graphics & Text | Print | Product List | Glossary On
Versions: 1 2 3 4 5 6 7 8 9 10 11 12 13 14 15 16 17 18 19 20 21 22 23 24 25 26 27 28 29 30 31 32 33 34 35 36 37 38 39 40 41 42 43 44 45 46 47 48
000
ASUS43 KDMX 281607
RWRIA

WEATHER ROUNDUP FOR IOWA
NATIONAL WEATHER SERVICE DES MOINES IA
1100 AM CDT THU MAY 28 2015

NOTE: "FAIR" INDICATES FEW OR NO CLOUDS BELOW 12,000 FEET WITH NO
SIGNIFICANT WEATHER AND/OR OBSTRUCTIONS TO VISIBILITY.

* - THESE STATIONS ARE NOT NWS STATIONS...THUS NOT UNDER NWS
QUALITY CONTROL.  THEY ALSO DO NOT REPORT WEATHER SUCH
AS PRECIPITATION OR FOG.

IAZ001>003-012>014-020>022-031>034-043>046-281700-
   NORTHWEST IOWA

CITY           SKY/WX    TMP DP  RH WIND       PRES   REMARKS
CARROLL *      SUNNY     73  59  60 S17G23    30.07S
CHEROKEE *     MOSUNNY   73  55  53 S20G26    30.05S
DENISON *      SUNNY     72  61  68 S10G16    30.03F
LE MARS *      SUNNY     75  55  50 S20G26    30.02F
ORANGE CITY *  SUNNY     72  54  53 S22G28    30.02F
SHELDON *      SUNNY     77  52  41 S25G32    30.02F
SIOUX CITY     MOSUNNY   74  58  57 SE9       30.01F
SPENCER        MOSUNNY   78  55  44 S23       30.05F
STORM LAKE *   SUNNY     75  55  50 S21       30.07S
$$

IAZ055>058-069>071-079>083-090>094-281700-
   SOUTHWEST IOWA

CITY           SKY/WX    TMP DP  RH WIND       PRES   REMARKS
ATLANTIC *     SUNNY     70  59  68 SE10G16   30.05F
AUDUBON *      SUNNY     72  61  68 S7        30.07F
CLARINDA *     MOSUNNY   70  63  78 VRB6      30.05F
COUNCIL BLFS * SUNNY     68  64  88 SE10      30.03F
CRESTON *      SUNNY     72  61  68 SE15      30.07F
HARLAN  *      SUNNY     72  64  78 S9        30.07F
LAMONI         CLOUDY    74  61  63 SE8       30.09F
RED OAK *      MOSUNNY   70  61  73 SE9       30.03F
SHENANDOAH *   MOSUNNY   68  63  83 SE13      30.04F
$$

IAZ047>049-059>061-072>074-084-281700-
   CENTRAL IOWA

CITY           SKY/WX    TMP DP  RH WIND       PRES   REMARKS
AMES           MOSUNNY   74  58  57 S17G24    30.09F
ANKENY *       SUNNY     75  61  60 S15       30.09F
CHARITON *     SUNNY     73  61  64 S13G18    30.11S
DES MOINES     CLOUDY    75  60  59 S13       30.09F
GRINNELL*      MOSUNNY   75  57  53 SE17G23   30.12F
KNOXVILLE *    SUNNY     75  59  57 S13       30.10F
MARSHALLTOWN   MOSUNNY   76  58  53 S15       30.11F
PELLA *        PTSUNNY   75  63  64 SE12G18   30.12F
PERRY *          N/A     75  57  53 S17G23    30.08F
$$

IAZ004>006-015-016-023>025-035-036-281700-
   NORTH CENTRAL IOWA

CITY           SKY/WX    TMP DP  RH WIND       PRES   REMARKS
ALGONA *       SUNNY     75  59  57 S22       30.08S
CLARION *      PTSUNNY   75  55  50 S18       30.09F
ESTHERVILLE    SUNNY     75  56  51 S20       30.06F
MASON CITY     MOSUNNY   76  58  53 S18       30.11F
FOREST CITY *  SUNNY     73  55  53 S21       30.10R
IOWA FALLS *     N/A     75  57  53 SE17      30.12S
$$

IAZ007>011-017>019-026>030-037>042-050>054-066-281700-
   NORTHEAST IOWA

CITY           SKY/WX    TMP DP  RH WIND       PRES   REMARKS
CEDAR RAPIDS   MOSUNNY   76  60  57 S13       30.13F
CHARLES CITY * SUNNY     75  59  57 S16       30.13S
CLINTON *      MOSUNNY   77  61  57 SE12      30.19F
DECORAH *      SUNNY     75  59  57 SW8       30.13F
DUBUQUE        MOSUNNY   75  58  55 S14       30.16F
MONTICELLO *   SUNNY     77  61  57 S14       30.14F
OELWEIN *      SUNNY     75  59  57 S12G18    30.14F
WATERLOO       PTSUNNY   77  58  51 S14       30.11F
$$

IAZ064-065-067-068-078-281700-
   EAST CENTRAL IOWA

CITY           SKY/WX    TMP DP  RH WIND       PRES   REMARKS
DAVENPORT      MOSUNNY   77  58  51 SE13      30.16F
IOWA CITY      SUNNY     76  61  59 S14       30.15F
MT. PLEASANT * MOSUNNY   75  57  53 SE14      30.14F
MUSCATINE *    SUNNY     77  59  53 S13G18    30.15F
QUAD CITIES    SUNNY     80  58  46 S14       30.15F HX  80
$$

IAZ062-063-075>077-085>089-095>099-281700-
   SOUTHEAST IOWA

CITY           SKY/WX    TMP DP  RH WIND       PRES   REMARKS
BURLINGTON     MOSUNNY   77  59  53 SE9       30.14F
FAIRFIELD *    SUNNY     75  59  57 SE14      30.13F
FORT MADISON * SUNNY     75  61  60 SE13      30.15F
KEOKUK *       SUNNY     75  59  57 SE14      30.13F
OSKALOOSA *      N/A     77  59  53 S15       30.12F
CENTERVILLE *  SUNNY     73  73 100 SE14      30.12F
OTTUMWA        PTSUNNY   75  60  59 S15G23    30.12S
WASHINGTON *   SUNNY     77  59  53 S16       30.15S
$$

ABBREVIATIONS USED IN REMARKS
   TC - TEMPERATURES IN CELSIUS
  WCI - WIND CHILL INDEX
   HX - HEAT INDEX
  VSB - VISIBILITY
$$



USA.gov is the U.S. government's official web portal to all federal, state and local government web resources and services.